[[{"header":{"parameterUnit":"m.s-1","parameterCategory":1,"la1":30.2991,"la2":30.254,"lo1":-89.0895,"lo2":-89.0444,"dy":0.0017,"dx":0.0017,"nx":28,"ny":28,"refTime":"2024-12-07T03:00:00:Z","depth":0,"parameterNumber":2,"parameterNumberName":"U-component_of_WINDS"},"data":[0,0,0,0,0,0,0,0,0,0,0,0,0,0,0,0,0,0,0,0,0,0,0,0,0,0,0,0,0,0,0,0,0,0,0,0,0,0,0,0,0,0,0,0,0,0,0,0,0,0,0,0,0,0,0,0,0,0,-2.4047,-2.4047,0,-2.4078,-2.4078,-2.4078,-2.4079,-2.4079,-2.4078,-2.4078,-2.4108,-2.4109,-2.4111,0,0,0,0,0,0,0,0,0,0,0,0,0,-2.3986,-2.3987,-2.4047,-2.4047,-2.4048,-2.4078,-2.4078,-2.4079,-2.4079,-2.4079,-2.4078,-2.4078,-2.4108,-2.4109,-2.4111,0,0,0,0,0,0,0,0,0,0,0,0,0,-2.4014,-2.3988,-2.4047,-2.4052,-2.4052,-2.4078,-2.4078,-2.4079,-2.4079,-2.4079,-2.4078,-2.4078,-2.4107,-2.4109,-2.4111,-2.4133,0,0,-2.4116,-2.4117,0,0,0,0,0,0,0,0,-2.4013,-2.4016,-2.405,-2.4051,-2.4052,-2.4074,-2.4068,-2.4097,-2.4079,-2.4069,-2.4078,-2.4077,-2.4097,-2.41,-2.4107,-2.4134,-2.4136,-2.4116,-2.4117,-2.4118,-2.4119,0,0,0,0,0,0,0,-2.4011,-2.4015,-2.4059,-2.4051,-2.4052,-2.4051,-2.4055,-2.4073,-2.4086,-2.407,-2.407,-2.4074,-2.4098,-2.4105,-2.4108,-2.4136,-2.4116,-2.4118,-2.4119,-2.412,-2.4182,-2.4182,0,0,0,0,0,0,-2.4008,-2.4014,-2.4058,-2.406,-2.4031,-2.4053,-2.4057,-2.4068,-2.4086,-2.4088,-2.4074,-2.4074,-2.4102,-2.4105,-2.4109,-2.4134,-2.4118,-2.412,-2.4121,-2.4181,-2.4182,-2.4183,0,0,0,0,0,0,-2.4007,-2.4012,-2.4057,-2.4037,-2.4042,-2.4055,-2.4067,-2.4068,-2.4076,-2.4089,-2.4091,-2.408,-2.4102,-2.4106,-2.4127,-2.4136,-2.4121,-2.4122,-2.418,-2.4181,-2.4182,-2.4187,0,0,0,0,0,0,-2.4005,-2.4012,-2.4021,-2.4037,-2.4044,-2.4075,-2.4067,-2.4069,-2.4079,-2.4079,-2.4095,-2.4097,-2.4102,-2.4124,-2.4128,-2.4138,-2.4124,-2.418,-2.4181,-2.4182,-2.4186,-2.4188,-2.419,0,0,0,0,0,-2.4003,-2.4021,-2.4021,-2.4027,-2.4055,-2.4076,-2.4079,-2.4085,-2.408,-2.4089,-2.4097,-2.4096,-2.4134,-2.4126,-2.4131,-2.4141,-2.4179,-2.418,-2.4182,-2.4185,-2.4188,-2.419,0,0,0,0,0,0,-2.4005,-2.4023,-2.4024,-2.4048,-2.406,-2.4076,-2.4087,-2.4088,-2.4102,-2.41,-2.4107,-2.411,-2.413,-2.4138,-2.4129,-2.4162,-2.4156,-2.4158,-2.4157,-2.4159,-2.4161,-2.4158,-2.4125,0,0,0,0,0,-2.4009,-2.4024,-2.4039,-2.4059,-2.4065,-2.4075,-2.4084,-2.4087,-2.41,-2.4105,-2.4115,-2.4127,-2.4141,-2.4151,-2.4165,-2.4187,-2.419,-2.4197,-2.4198,-2.42,-2.4201,-2.4212,-2.4215,-2.4187,-2.4187,-2.4187,0,0,-2.4016,-2.4028,-2.4037,-2.4059,-2.4069,-2.4084,-2.4079,-2.4096,-2.4107,-2.4108,-2.4127,-2.4135,-2.4149,-2.417,-2.418,-2.4176,-2.421,-2.4201,-2.4202,-2.4203,-2.4214,-2.4216,-2.4219,-2.4188,-2.4188,-2.4188,0,0,-2.4036,-2.4047,-2.4064,-2.4074,-2.4089,-2.4096,-2.41,-2.4115,-2.412,-2.414,-2.414,-2.4153,-2.4178,-2.4188,-2.4196,-2.4218,-2.4217,-2.4222,-2.4231,-2.4242,-2.4244,-2.4246,-2.4252,-2.4255,-2.4224,-2.4224,-2.4224,0,-2.4043,-2.4066,-2.4073,-2.4089,-2.4098,-2.41,-2.4116,-2.4126,-2.4144,-2.415,-2.4147,-2.4177,-2.4187,-2.4209,-2.4215,-2.4222,-2.4225,-2.422,-2.4243,-2.4245,-2.4247,-2.4253,-2.4256,-2.4225,-2.4225,-2.4225,-2.4225,0,-2.4073,-2.4089,-2.4101,-2.4118,-2.4129,-2.4145,-2.4153,-2.4163,-2.4166,-2.4172,-2.4191,-2.4203,-2.4218,-2.4224,-2.4227,-2.4247,-2.4244,-2.4242,-2.4235,-2.425,-2.4256,-2.4259,-2.4225,-2.4225,-2.4225,-2.4225,0,0,-2.4096,-2.4116,-2.412,-2.4128,-2.4144,-2.4156,-2.4172,-2.4188,-2.4195,-2.4208,-2.422,-2.4241,-2.4239,-2.4248,-2.4251,-2.4261,-2.4276,-2.4257,-2.4257,-2.4259,-2.4297,-2.4298,-2.43,-2.4276,-2.4276,-2.4277,-2.4295,0,-2.4117,-2.4145,-2.4151,-2.4175,-2.4189,-2.419,-2.4204,-2.4215,-2.4221,-2.4233,-2.424,-2.4254,-2.425,-2.4255,-2.4265,-2.4272,-2.4283,-2.4271,-2.4286,-2.4287,-2.4282,-2.4304,-2.4305,-2.4322,-2.4298,-2.4298,-2.4298,0,-2.4145,-2.4158,-2.4184,-2.4197,-2.4203,-2.4215,-2.4229,-2.4241,-2.4253,-2.4256,-2.4266,-2.4268,-2.4283,-2.4276,-2.4297,-2.4288,-2.4295,-2.4299,-2.43,-2.4301,-2.4293,-2.4304,-2.4328,-2.433,-2.4302,-2.4302,-2.4302,0,-2.4157,-2.4181,-2.4199,-2.4206,-2.4222,-2.423,-2.4237,-2.4249,-2.4257,-2.4269,-2.4274,-2.4288,-2.4295,-2.4306,-2.4311,-2.4306,-2.433,-2.4324,-2.4333,-2.4333,-2.4338,-2.4337,-2.4361,-2.4344,-2.4344,-2.4344,-2.4343,0,-2.4179,-2.4194,-2.4205,-2.4216,-2.4232,-2.4238,-2.4254,-2.4261,-2.4271,-2.4283,-2.4285,-2.4296,-2.4303,-2.4314,-2.4319,-2.4334,-2.4338,-2.434,-2.4341,-2.434,-2.4339,-2.4343,-2.4342,-2.4344,-2.4344,-2.4344,-2.4344,0,-2.4195,-2.4203,-2.4222,-2.4236,-2.424,-2.4251,-2.4262,-2.4273,-2.4279,-2.4293,-2.4297,-2.4306,-2.432,-2.4326,-2.4343,-2.4346,-2.4363,-2.4364,-2.4359,-2.4359,-2.4367,-2.4365,-2.4394,-2.4397,-2.4378,-2.4378,-2.4379,0,-2.4208,-2.422,-2.4235,-2.4243,-2.425,-2.4263,-2.4271,-2.4278,-2.4286,-2.43,-2.4308,-2.4322,-2.4333,-2.4354,-2.4362,-2.4375,-2.4375,-2.4384,-2.4377,-2.4374,-2.4373,-2.4372,-2.4373,-2.4385,-2.4385,-2.4385,-2.4385,0,-2.423,-2.4233,-2.4246,-2.4259,-2.4269,-2.428,-2.4291,-2.4297,-2.4305,-2.4314,-2.4328,-2.4337,-2.4354,-2.4367,-2.4379,-2.4386,-2.4386,-2.4387,-2.439,-2.4388,-2.4384,-2.4385,-2.4361,-2.4387,-2.4387,-2.4386,-2.4386,-2.4386,-2.4244,-2.4254,-2.4266,-2.4279,-2.4288,-2.4297,-2.4307,-2.4314,-2.4326,-2.434,-2.4343,-2.4357,-2.4368,-2.4385,-2.4392,-2.4403,-2.4401,-2.4405,-2.4405,-2.4406,-2.4406,-2.4383,-2.4405,-2.4405,-2.4405,-2.4405,-2.4405,0,-2.4265,-2.4272,-2.4285,-2.4299,-2.431,-2.431,-2.4321,-2.4329,-2.4342,-2.4352,-2.4363,-2.4378,-2.439,-2.4399,-2.4412,-2.4418,-2.4419,-2.4421,-2.442,-2.4422,-2.4408,-2.4404,-2.4421,-2.4421,-2.4421,-2.4421,-2.4421,-2.4421,-2.4277,-2.4293,-2.4297,-2.4317,-2.4325,-2.4339,-2.4345,-2.4354,-2.4361,-2.4378,-2.4389,-2.4394,-2.4403,-2.4416,-2.4427,-2.443,-2.4433,-2.4436,-2.4438,-2.4424,-2.4423,-2.4421,-2.4417,-2.4437,-2.4437,-2.4451,-2.4451,-2.4451]},{"header":{"parameterUnit":"m.s-1","parameterCategory":1,"la1":30.2991,"la2":30.254,"lo1":-89.0895,"lo2":-89.0444,"dy":0.0017,"dx":0.0017,"nx":28,"ny":28,"refTime":"2024-12-07T03:00:00:Z","depth":0,"parameterNumber":3,"parameterNumberName":"V-component_of_WINDS"},"data":[0,0,0,0,0,0,0,0,0,0,0,0,0,0,0,0,0,0,0,0,0,0,0,0,0,0,0,0,0,0,0,0,0,0,0,0,0,0,0,0,0,0,0,0,0,0,0,0,0,0,0,0,0,0,0,0,0,0,2.1158,2.1159,0,2.1261,2.1262,2.1263,2.1259,2.1258,2.1257,2.1255,2.136,2.1364,2.1368,0,0,0,0,0,0,0,0,0,0,0,0,0,2.0961,2.0964,2.1158,2.1159,2.1161,2.126,2.1262,2.1263,2.126,2.1258,2.1256,2.1255,2.1359,2.1363,2.1368,0,0,0,0,0,0,0,0,0,0,0,0,0,2.1053,2.0966,2.1158,2.1171,2.1173,2.126,2.1262,2.1264,2.126,2.1258,2.1256,2.1254,2.1357,2.1363,2.1369,2.145,0,0,2.1388,2.1391,0,0,0,0,0,0,0,0,2.1048,2.106,2.1168,2.117,2.1173,2.1245,2.1231,2.1326,2.1261,2.1227,2.1255,2.1253,2.1323,2.1332,2.1356,2.1455,2.1459,2.1388,2.1392,2.1395,2.1397,0,0,0,0,0,0,0,2.1042,2.1056,2.1199,2.1169,2.1172,2.1172,2.1183,2.1249,2.1286,2.123,2.123,2.1242,2.1324,2.135,2.1358,2.1461,2.1388,2.1394,2.1398,2.14,2.1634,2.1636,0,0,0,0,0,0,2.1032,2.1051,2.1195,2.1202,2.1104,2.1177,2.1189,2.1224,2.1285,2.1292,2.1244,2.1241,2.1341,2.1351,2.1362,2.1463,2.1395,2.1401,2.1404,2.1632,2.1635,2.1637,0,0,0,0,0,0,2.1028,2.1045,2.1191,2.1126,2.1145,2.1183,2.1222,2.1227,2.1253,2.1296,2.1302,2.1263,2.1339,2.1353,2.1429,2.1467,2.1403,2.1409,2.1629,2.1632,2.1636,2.1665,0,0,0,0,0,0,2.1022,2.1044,2.1074,2.1127,2.1148,2.1256,2.1224,2.1231,2.1264,2.1262,2.1316,2.1323,2.1339,2.142,2.1435,2.1474,2.1414,2.1625,2.163,2.1635,2.166,2.1669,2.1676,0,0,0,0,0,2.1015,2.1077,2.1076,2.1093,2.1187,2.1258,2.127,2.1288,2.1267,2.1298,2.1326,2.1321,2.146,2.1427,2.1445,2.1486,2.1623,2.1629,2.1634,2.1657,2.1667,2.1676,0,0,0,0,0,0,2.1028,2.1085,2.1083,2.1164,2.1206,2.1257,2.1297,2.1297,2.1346,2.1342,2.1362,2.1374,2.145,2.1475,2.1438,2.1569,2.1539,2.1548,2.155,2.156,2.1568,2.1561,2.1419,0,0,0,0,0,2.104,2.1092,2.1139,2.1206,2.1227,2.1259,2.129,2.13,2.1344,2.1362,2.1395,2.1439,2.1493,2.1527,2.1579,2.1664,2.1677,2.1701,2.1709,2.1715,2.1723,2.1773,2.1785,2.1656,2.1656,2.1656,0,0,2.1065,2.1103,2.1135,2.1209,2.1243,2.1298,2.1274,2.1332,2.1373,2.1371,2.1445,2.1471,2.1521,2.1602,2.1639,2.1625,2.1762,2.1722,2.1727,2.1732,2.178,2.1792,2.1803,2.166,2.1659,2.1658,0,0,2.1141,2.1173,2.1234,2.1269,2.1321,2.1342,2.1356,2.1408,2.1425,2.15,2.15,2.1549,2.1641,2.1677,2.1708,2.1799,2.1797,2.1815,2.1857,2.1905,2.1915,2.1925,2.196,2.1972,2.1823,2.1823,2.1823,0,2.1166,2.1248,2.1265,2.1325,2.1359,2.136,2.1423,2.1456,2.1521,2.1545,2.1528,2.1645,2.1678,2.177,2.1792,2.1816,2.1835,2.181,2.1912,2.1922,2.1931,2.1965,2.1978,2.1825,2.1825,2.1825,2.1825,0,2.1278,2.1335,2.1378,2.1444,2.1482,2.1543,2.157,2.1607,2.1614,2.1637,2.1714,2.1755,2.1816,2.1838,2.1844,2.1931,2.1921,2.1908,2.1878,2.1945,2.1977,2.199,2.1828,2.1828,2.1827,2.1826,0,0,2.1364,2.1439,2.1455,2.1486,2.1544,2.1589,2.165,2.1711,2.1743,2.1789,2.1842,2.1921,2.191,2.1945,2.1955,2.1997,2.2071,2.198,2.1981,2.1998,2.2172,2.2184,2.2198,2.2069,2.2072,2.2074,2.2169,0,2.1447,2.1557,2.1575,2.1672,2.1726,2.1729,2.1783,2.1825,2.1849,2.1899,2.1924,2.1981,2.1961,2.1982,2.2024,2.2053,2.2107,2.2046,2.2121,2.2124,2.2111,2.2215,2.2226,2.2314,2.2182,2.2184,2.2185,0,2.1559,2.1609,2.1712,2.1765,2.1789,2.1837,2.1895,2.1942,2.1991,2.2005,2.2045,2.2052,2.2117,2.2084,2.2175,2.2134,2.2165,2.2185,2.2189,2.2198,2.216,2.2229,2.2342,2.2356,2.2205,2.2203,2.2202,0,2.1615,2.1708,2.1782,2.1808,2.1871,2.1906,2.1933,2.198,2.2016,2.2067,2.2091,2.2148,2.218,2.2225,2.2248,2.222,2.2339,2.2306,2.2354,2.2354,2.2381,2.2379,2.2503,2.2397,2.2397,2.2396,2.2396,0,2.1707,2.1771,2.1808,2.1854,2.1926,2.1946,2.2017,2.2044,2.2086,2.2138,2.2142,2.2191,2.2217,2.227,2.2288,2.2363,2.2376,2.2391,2.2396,2.2392,2.2391,2.2415,2.241,2.24,2.2399,2.2398,2.2398,0,2.1783,2.181,2.1892,2.1945,2.1961,2.2011,2.2058,2.2103,2.2127,2.2193,2.2209,2.2247,2.231,2.2336,2.2413,2.2425,2.2512,2.251,2.2496,2.2498,2.2546,2.2542,2.2691,2.2713,2.259,2.2591,2.2592,0,2.1841,2.189,2.195,2.1986,2.2015,2.2072,2.2109,2.2131,2.217,2.2231,2.2269,2.2332,2.2384,2.2485,2.2519,2.2579,2.258,2.2628,2.2589,2.2586,2.2585,2.2583,2.2589,2.2636,2.2638,2.2639,2.2639,0,2.1943,2.1955,2.2008,2.2068,2.2113,2.216,2.2207,2.2236,2.2265,2.2309,2.2374,2.2414,2.2494,2.2557,2.2619,2.2649,2.2651,2.2651,2.2666,2.2665,2.2656,2.2664,2.2519,2.2648,2.2647,2.2647,2.2646,2.2646,2.2014,2.2059,2.2109,2.2169,2.2207,2.2251,2.2297,2.2327,2.2381,2.2449,2.2458,2.2528,2.2578,2.2661,2.2693,2.2749,2.2737,2.2758,2.2764,2.2769,2.2774,2.2645,2.276,2.276,2.276,2.276,2.276,0,2.2118,2.2151,2.2206,2.2272,2.2321,2.2317,2.2369,2.241,2.2472,2.2518,2.2569,2.2645,2.2707,2.2747,2.281,2.2848,2.285,2.2864,2.2863,2.287,2.278,2.2762,2.2861,2.2861,2.2861,2.2861,2.2861,2.2861,2.2179,2.2256,2.2274,2.237,2.2402,2.2472,2.2502,2.2543,2.2581,2.2666,2.2718,2.2743,2.2787,2.2854,2.2912,2.2922,2.2946,2.2961,2.2971,2.2886,2.2876,2.2866,2.285,2.2965,2.2966,2.3057,2.3058,2.3059]}]]